Regional Weather Roundup
Issued by NWS Upton, NY

Current Version | Previous Version | Graphics & Text | Print | Product List | Glossary Off
Versions: 1 2 3 4 5 6 7 8 9 10 11 12 13 14 15 16 17 18 19 20 21 22 23 24 25 26 27 28 29 30 31 32 33 34 35 36 37 38 39 40 41 42 43 44 45 46 47 48 49 50

782
ASUS41 KOKX 162009
RWROKX

REGIONAL WEATHER ROUNDUP
NATIONAL WEATHER SERVICE NEW YORK NY
400 PM EDT MON OCT 16 2017

NOTE: "FAIR" INDICATES FEW OR NO CLOUDS BELOW 12,000 FEET WITH NO
SIGNIFICANT WEATHER AND/OR OBSTRUCTIONS TO VISIBILITY.

NYZ071-072-176-178-NJZ106-104-162100-
NEW YORK CITY METRO AREA

CITY           SKY/WX    TMP DP  RH WIND       PRES   REMARKS
Central Park   CLOUDY    56  39  53 NW13G20   30.07R
Bronx Bot Gard   N/A     55  37  50 NW9       30.05F
LaGuardia APRT CLOUDY    58  42  55 NW17      30.03R
Kennedy INTL   PTSUNNY   59  41  51 NW16      30.04R
Breezy Point     N/A     55 N/A N/A NW15G22     N/A
Newark/Liberty CLOUDY    58  39  49 NW15      30.05R
Teterboro      CLOUDY    56  39  53 NW14G24   30.04R
$$

NYZ177-179-078>081-162100-
LONG ISLAND NEW YORK

CITY           SKY/WX    TMP DP  RH WIND       PRES   REMARKS
Jones Beach      N/A     57 N/A N/A NW16G22     N/A
Matinecock PT    N/A     57 N/A N/A NW20        N/A
Farmingdale    CLOUDY    60  40  47 N14G22    30.02S
MacArthur/ISP  CLOUDY    58  42  55 N21       30.01R
Shirley        CLOUDY    58  43  57 N12       30.01R
Mt Sinai Harb    N/A    N/A N/A N/A N15G21      N/A
Westhampton    CLOUDY    55  41  59 N15G22    30.01R
East Hampton   FAIR      53  43  68 NW7       30.00R
Montauk        NOT AVBL
$$

NYZ052-065-067-162100-
HUDSON VALLEY

CITY           SKY/WX    TMP DP  RH WIND       PRES   REMARKS
White Plains   CLOUDY    55  39  54 NW14      30.03R
Larchmont Harb   N/A     55 N/A N/A NW10        N/A
Croton On Huds   N/A     57 N/A N/A NW9         N/A
Newburgh       PTSUNNY   54  41  62 NW17G24   30.07R
Montgomery     CLOUDY    55  39  54 N6        30.06R
Poughkeepsie   CLOUDY    55  38  52 NW7       30.05R
Albany         PTSUNNY   53  35  50 W18       30.07R
$$

NJZ001-105-106-008-010-013-015-019>022-104-162100-
NEW JERSEY

CITY           SKY/WX    TMP DP  RH WIND       PRES   REMARKS
Newark/Liberty CLOUDY    58  39  49 NW15      30.05R
Teterboro      CLOUDY    56  39  53 NW14G24   30.04R
Caldwell       CLOUDY    56  40  55 NW12G22   30.06R
Somerville     CLOUDY    57  40  52 N13G21    30.05R
Linden         FAIR      57  38  48 NW17      30.06R
Perth Amboy      N/A     55 N/A N/A NW18        N/A
Sussex         CLOUDY    55  39  54 N7G17     30.07R
Andover          N/A     54  39  57 VRB7      30.07R
Trenton        CLOUDY    57  41  55 N10       30.06R
Millville      PTSUNNY   61  45  55 NW12G17   30.07R
Atlantic City  CLOUDY    58  43  57 NW16G24   30.05R
Wrightstown    MOSUNNY   57  41  54 N12       30.05R
Toms River       N/A     57  43  59 N15       30.05R
Belmar         CLOUDY    57  40  52 NW15G22   30.05
$$

PAZ047>061-062-071-162100-
EASTERN PENNSYLVANIA

CITY           SKY/WX    TMP DP  RH WIND       PRES   REMARKS
Philadelphia   PTSUNNY   58  39  49 NW14      30.08R
Allentown      PTSUNNY   58  37  45 NW13      30.09R
Scranton       MOSUNNY   53  31  42 NW16      30.12R
$$

CTZ002-004>006-009-010-012-RIZ004-006-007-MAZ004-011-015-162100-
SOUTHERN NEW ENGLAND
 IN CT

CITY           SKY/WX    TMP DP  RH WIND       PRES   REMARKS
Bradley INTL   CLOUDY    54  38  54 NW14      30.02R
Hartford       CLOUDY    55  40  56 NW8G18    30.02R
Danbury        CLOUDY    53  39  59 N12G20    30.05R
Wtrbury/Oxford CLOUDY    50  38  63 NW10      30.04R
Norwalk Harbor   N/A     55 N/A N/A NW16        N/A
Bridgeport     PTSUNNY   56  39  53 NW13G21   30.02R
Meriden        CLOUDY    53  39  59 NW14      30.03R
New Haven      CLOUDY    57  40  52 N12G18    30.02R
Chester        FAIR      54  41  62 NW10G17   30.01R
Groton         CLOUDY    55  41  59 N12       29.99R
Wilimantic     CLOUDY    55  41  59 N12       30.00R

 IN RI

CITY           SKY/WX    TMP DP  RH WIND       PRES   REMARKS
Providence     CLOUDY    56  42  59 N9        29.97R
Block Island   CLOUDY    56  45  66 NW9       29.97R
Westerly       CLOUDY    56  43  61 NW6       29.99R
 IN MA

CITY           SKY/WX    TMP DP  RH WIND       PRES   REMARKS
Boston         CLOUDY    55  38  52 NW14      29.96R
Worcester      CLOUDY    49  35  58 NW13      29.98R
Westfield      CLOUDY    54  39  57 N10       30.01R
Provincetown   CLOUDY    55  44  66 N12       29.94R
Nantucket      CLOUDY    57  49  74 N16       29.92R
$$

ANZ330-335-338-340-345-350-353-355-162100-
COASTAL MARINE OBSERVATIONS


STATION/POSITION TIME  SKY/WX   TEMP    WIND        PRES    VSBY  WAVE
                                AIR SEA DIR/SP/G                  HT/PER
                 (UTC)          (F)     (DEG/KT/KT) (MB)    (MI)  (FT/S)
NY HARB ENTRANCE 1850            58 66  320/ 17/ 21 1015.5          3/ 7
20 S FIRE ISLAND 1950            58 65  330/ 16/ 21 1015.6          4/ 8
GREAT SOUTH BAY  1915            57 65  340/ 16/ 19   N/A
15 E BARNEGAT LI 1930               68                N/A           4/ 5
HUDSON CANYON    1850            60 66  330/ 16/ 17 1014.3          5/ 6
KINGS POINT      1942            58 67   10/ 14/ 19 1017.4
EXECUTION ROCKS  1930            60     330/ 14/ 21   N/A
WESTERN LI SOUND 1849            58     340/ 14/ 19   N/A           1/ 2
CENTRAL LI SOUND NOT AVBL
EASTERN LI SOUND NOT AVBL
ROBBINS REEF     1942            57     330/ 20/ 23 1017.8
$$


>>>>>>>>>>>>>>>>>>>>>>>>>>>> KEY <<<<<<<<<<<<<<<<<<<<<<<<<<<
>                                                          <
>     SKY/WX - Sky Condition/Present Weather               <
>     TMP    - Temperature in Fahrenheit                   <
>     DP     - Dew Point in Fahrenheit                     <
>     RH     - Relative Humidity in Percent                <
>     WIND   - Direction (from) and Speed in MPH           <
>     PRES   - Mean Sea Level Pressure (inches of Hg)      <
>     WCI    - Wind Chill Index                            <
>     VSB    - VISIBILITY IN MILES                         <
>     HX     - HEAT INDEX                                  <
>     TC     - TEMPERATURE IN CELSIUS                      <
>     VRB    - VARIABLE WIND DIRECTION                     <
>                                                          <
>>>>>>>>>>>>>>>>>>>>>>>>>>>> KEY <<<<<<<<<<<<<<<<<<<<<<<<<<<




USA.gov is the U.S. government's official web portal to all federal, state and local government web resources and services.